Weather History for North Las Vegas, NV

Change the Weather History Date:

Thursday, April 24, 2014

  Actual Average Record
Temperature  
Mean Temperature 70 °F -  
Max Temperature 84 °F 81 °F 96 °F (1953)
Min Temperature 55 °F 57 °F 37 °F (1960)
Cooling Degree Days 4    
Growing Degree Days 20 (Base 50)    
Moisture  
Dew Point 11 °F    
Average Humidity 12    
Maximum Humidity 26    
Minimum Humidity 5    
Precipitation  
Precipitation 0.00 in - - ()
Sea Level Pressure  
Sea Level Pressure 29.90 in    
Wind  
Wind Speed 5 mph (SSW)    
Max Wind Speed 14 mph    
Max Gust Speed 17 mph    
Visibility 10 miles    
Events      
Averages and records for this station are not official NWS values.
T = Trace of Precipitation, MM = Missing Value Source: NWS Daily Summary

Daily Weather History Graph

Daily Weather History Graph

Search for Another Location

Airport:

Trip Planner

Search our weather history database for the weather conditions in past years. The results will help you decide how hot, cold, wet, or windy it might be!

Date:

Astronomy

Apr. 24, 2014 Rise Set
Actual Time 5:55 AM PDT 7:22 PM PDT
Civil Twilight 5:28 AM PDT 7:49 PM PDT
Nautical Twilight 4:56 AM PDT 8:22 PM PDT
Astronomical Twilight 4:22 AM PDT 8:56 PM PDT
Moon 3:00 AM PDT (4/24) 2:51 PM PDT (4/24)
Length of Visible Light 14h 20m
Length of Day
13h 26m
Waning Crescent, 23% of the Moon is Illuminated
Apr 24
Waning Crescent
Apr 28
New
May 6
First Quarter
May 14
Full
May 21
Last Quarter

Hourly Weather History & Observations

Time (PDT) Temp. Dew Point Humidity Pressure Visibility Wind Dir Wind Speed Gust Speed Precip Events Conditions
12:53 AM 60.1 °F 18.0 °F 20% 29.95 in 10.0 mi NW 4.6 mph - N/A   Clear
1:53 AM 62.1 °F 19.0 °F 19% 29.95 in 10.0 mi West 3.5 mph - N/A   Clear
2:53 AM 57.0 °F 19.0 °F 23% 29.96 in 10.0 mi NNW 5.8 mph - N/A   Clear
3:53 AM 59.0 °F 18.0 °F 20% 29.94 in 10.0 mi WNW 4.6 mph - N/A   Clear
4:53 AM 57.0 °F 18.0 °F 22% 29.95 in 10.0 mi ENE 3.5 mph - N/A   Clear
5:53 AM 55.9 °F 21.0 °F 26% 29.96 in 10.0 mi Calm Calm - N/A   Clear
6:53 AM 55.9 °F 21.0 °F 26% 29.99 in 10.0 mi WNW 3.5 mph - N/A   Clear
7:53 AM 63.0 °F 14.0 °F 15% 30.00 in 10.0 mi Calm Calm - N/A   Clear
8:53 AM 66.0 °F 12.9 °F 13% 30.00 in 10.0 mi Calm Calm - N/A   Clear
9:53 AM 70.0 °F 12.9 °F 11% 30.00 in 10.0 mi Calm Calm - N/A   Clear
10:53 AM 72.0 °F 10.0 °F 9% 30.00 in 10.0 mi Variable 5.8 mph - N/A   Clear
11:53 AM 75.9 °F 10.0 °F 8% 29.98 in 10.0 mi East 6.9 mph - N/A   Clear
12:53 PM 78.1 °F 7.0 °F 7% 29.95 in 10.0 mi South 11.5 mph 16.1 mph N/A   Clear
1:53 PM 79.0 °F 5.0 °F 6% 29.91 in 10.0 mi ESE 5.8 mph - N/A   Clear
2:53 PM 81.0 °F 6.1 °F 6% 29.88 in 10.0 mi South 8.1 mph - N/A   Clear
3:53 PM 82.0 °F 5.0 °F 5% 29.84 in 10.0 mi SE 11.5 mph 17.3 mph N/A   Clear
4:53 PM 84.0 °F 5.0 °F 5% 29.81 in 10.0 mi SE 13.8 mph - N/A   Clear
5:53 PM 84.0 °F 5.0 °F 5% 29.79 in 10.0 mi South 8.1 mph - N/A   Clear
6:53 PM 81.0 °F 5.0 °F 5% 29.79 in 10.0 mi SE 12.7 mph - N/A   Clear
7:53 PM 80.1 °F 10.0 °F 7% 29.78 in 10.0 mi SW 4.6 mph - N/A   Clear
8:53 PM 77.0 °F 7.0 °F 7% 29.79 in 10.0 mi SW 6.9 mph - N/A   Clear
9:53 PM 75.0 °F 3.9 °F 6% 29.79 in 10.0 mi South 9.2 mph - N/A   Clear
10:53 PM 73.9 °F 6.1 °F 7% 29.79 in 10.0 mi SW 5.8 mph - N/A   Clear
11:53 PM 73.0 °F 10.0 °F 9% 29.77 in 10.0 mi SW 6.9 mph - N/A   Clear